Domov               UVHVVR             MKGP            O straneh              
ZDRAVSTVENO VARSTVO RASTLIN
  MREŽA AGROMET. POSTAJ
 ► PROGNOSTIČNA OBVESTILA
AGROMETEOROLOŠKI PODATKI -
ARSO
OBVLADOVANJE TVEGANJ ZARADI
NEUGODNIH VREMENSKIH RAZMER
  ► NARAVNE NESREČE
  ► SUŠA/MOČA
  ► NAMAKANJE
  ► ŽLED (gozdarstvo)
KARTOGRAFSKI PRIKAZI
SPLETNE POVEZAVE
PROJEKTI IN PUBLIKACIJE

AGROMETEOROLOŠKA MREŽA: VREMENSKE POSTAJE IN FENOLOŠKA OPAZOVANJA

Pregled podatkov za lokacijo Savci, meteorološka postaja 27393

Pregled senzorjev na lokaciji

ID Ime Zadnja
vrednost
Datum
zadnje
spremembe
Tip
senzorja
942 Omočenost lista (U) 10 U 17.8.2017 07:44 A730WET
943 Temperatura 2 m ( °C) 17,95 °C 17.8.2017 07:44 Generic -40 - +60 °C
944 Relativna vlaga 2 m (% RH) 87,28 % RH 17.8.2017 07:44 Generic 0 - 100 %
1378 Padavine 0.2 mm (mm) 0 mm 17.8.2017 07:44 Generic 0.2 mm

Pregled podatkov zadnjih 24 ur

Zap.
št.
Datum in čas Savci
Omočenost
lista
Padavine
0.2
mm
Relativna
vlaga
2
m
Temperatura
2
m
0 17.8.2017 06:30 10 0 87,28 17,95
1 17.8.2017 06:00 10 0 99,93 16,29
2 17.8.2017 05:30 10 0 99,93 15,04
3 17.8.2017 05:00 10 0 99,93 14,77
4 17.8.2017 04:30 10 0 99,93 15,02
5 17.8.2017 04:00 10 0 99,93 15,24
6 17.8.2017 03:30 10 0 99,93 15,68
7 17.8.2017 03:00 10 0 99,93 16,29
8 17.8.2017 02:30 10 0 99,93 16,19
9 17.8.2017 02:00 10 0 97,7 16,34
10 17.8.2017 01:30 10 0 94,41 16,73
11 17.8.2017 01:00 10 0 93,46 17,17
12 17.8.2017 00:30 10 0 94,31 16,8
13 17.8.2017 00:00 10 0 93,99 16,8
14 16.8.2017 23:30 10 0 92,41 17,31
15 16.8.2017 23:00 10 0 92,11 17,53
16 16.8.2017 22:30 10 0 91,06 18,12
17 16.8.2017 22:00 8 0 86,54 18,66
18 16.8.2017 21:30 3 0 85,01 19,63
19 16.8.2017 21:00 1 0 77,63 21
20 16.8.2017 20:30 1 0 76,73 21,25
21 16.8.2017 20:00 0 0 72,41 22,25
22 16.8.2017 19:30 0 0 69,96 22,74
23 16.8.2017 19:00 0 0 69,43 23,32
24 16.8.2017 18:30 0 0 67,33 24,13
25 16.8.2017 18:00 0 0 63,25 24,08
26 16.8.2017 17:30 0 0 65,08 25,25
27 16.8.2017 17:00 0 0 59,12 26,81
28 16.8.2017 16:30 0 0 46,11 27,94
29 16.8.2017 16:00 0 0 42,78 28,57
30 16.8.2017 15:30 0 0 42,12 29,16
31 16.8.2017 15:00 0 0 41,76 29,3
32 16.8.2017 14:30 0 0 38,36 29,72
33 16.8.2017 14:00 0 0 38,53 29,84
34 16.8.2017 13:30 0 0 38,73 29,4
35 16.8.2017 13:00 0 0 36,46 29,65
36 16.8.2017 12:30 0 0 37,44 29,3
37 16.8.2017 12:00 0 0 39,83 28,82
38 16.8.2017 11:30 0 0 40,78 28,99
39 16.8.2017 11:00 0 0 43,44 28,6
40 16.8.2017 10:30 0 0 43,44 27,57
41 16.8.2017 10:00 0 0 46,91 27,55
42 16.8.2017 09:30 0 0 49,06 26,94
43 16.8.2017 09:00 0 0 50,21 25,42
44 16.8.2017 08:30 0 0 57,68 24,52
45 16.8.2017 08:00 0 0 61,95 23,27
© 2011 Ministrstvo za kmetijstvo, gozdarstvo in prehrano. Vse pravice pridržane.